Regional Weather Roundup
Issued by NWS Goodland, KS

Home | Current Version | Previous Version | Graphics & Text | Print | Product List | Glossary On
Versions: 1 2 3 4 5 6 7 8 9 10 11 12 13 14 15 16 17 18 19 20 21 22 23 24 25 26 27 28 29 30 31 32 33 34 35 36 37 38 39 40 41 42 43 44 45 46 47 48 49 50
000
ASUS43 KGLD 240159
RWRGLD

GOODLAND FORECAST AREA HOURLY WEATHER ROUNDUP
NATIONAL WEATHER SERVICE GOODLAND KS
800 PM MDT FRI JUN 23 2017

...OFFICIAL OBSERVATIONS...

CITY           SKY/WX    TMP DP  RH WIND       PRES   REMARKS
GOODLAND KS    CLEAR     66  50  56 N3        30.18R
HILL CITY KS   CLEAR     74  51  44 N3        30.10R
IMPERIAL NEB   CLEAR     67  43  41 N6        30.16R
MCCOOK NEB     CLEAR     71  41  33 N9        30.12R
AKRON CO       CLEAR     64  43  46 NW5       30.24R
BURLINGTON CO  PTCLDY    62  53  72 W6        30.22R
LIMON CO       CLOUDY    61  43  51 SE5       30.28R
$$

...UNOFFICIAL OBSERVATIONS...

CITY           SKY/WX    TMP DP  RH WIND       PRES   REMARKS
LENORA KS        N/A     71  32  23 MISG        N/A
NORTON KS      CLEAR     70  37  30 N5        30.10R
SHARON SPRINGS   N/A     67  53  59 CALM        N/A
TRENTON NEB      N/A     68  32  26 CALM        N/A
KIT CARSON CO    N/A     66  46  49 CALM        N/A
$$




USA.gov is the U.S. government's official web portal to all federal, state and local government web resources and services.